Aérodrome :
LOGIN :

S'inscrire | Disclaimer

   EN    FR    IT 

 










Légende :    VFR   VFR Marginal   IFR   IFR Intensif   IFR Très Intensif
Visi : 
Plafond : 
>= 8 km
>= 3000ft
5 à 8 km
1000 à 3000 ft
1500m à 5 km
500 à 1000 ft
800 à 1500m
200 à 500 ft
< 800m
< 200 ft
Symboles :   Orages  Brouillard  Fortes neiges  Fortes précipitations  Vent > 20 kt
SIGMETs :   Divers  Orages  Givrage  Turbulence  Onde Orograph.  Cendres Volcan.







- Altitude de l'aérodrome : 236 ft
- Code IATA : MMX


ESMS - Malmö Sturup

DERNIER METAR :
  • 221520Z 09017KT CAVOK 13/02 Q1021

METARs EXPIRÉS :
  • 221450Z 09017KT CAVOK 13/02 Q1021
  • 221420Z 09014KT CAVOK 14/02 Q1021
  • 221350Z 10015KT CAVOK 14/02 Q1021
  • 221320Z 09014KT 070V130 CAVOK 14/02 Q1021
  • 221250Z 09015KT CAVOK 14/01 Q1022

TAF TAF ESMS
Valide du 22 à 12h jusqu'au 23 à 12h UTC


221112Z 2212/2312 12012KT CAVOK
TEMPO 2212/2216 12015G25KT
BECMG 2306/2308 12020G40KT
Pas de NOTAMs connus pour ce terrain.



MET'MAP, la Météo Aéronautique d'un coup d'oeil ! - Copyright ORBIFLY Décembre 2007 - Disclaimer

ORBIFLY MET'MAP TEAM :

Programmation & Développement : Alexandra Zaïnal
Conception & Développement : Baudouin d'Aumeries
Co-Programmation & Développement : Marc-Olivier Méhu
Soutien technique & logistique : Manuel Goepfert

Contact : metmap@orbifly.com




SOURCES & CREDITS :

   NOAA